Overview Statistics Trail Chart Weather Telemetry Raw packets
 

This is the latest recevied weather packets stored in our database for station/object W5MAI. If no packets are shown the sender has not sent any weather packets the latest 10 day(s).

<< 40 41 42 43 44 45 46 >>
Time Temp. Humidity Pressure Rain* Wind** Luminosity Snow
1787933031 26.67° C 86% 1020.7 hPa 0 mm - 489 W/m² -
1787932438 26.11° C 90% 1020.8 hPa 0 mm - 380 W/m² -
1787931862 25.56° C 92% 1020.7 hPa 0 mm - 325 W/m² -
1787931206 25° C 95% 1020.6 hPa 0 mm - 255 W/m² -
1787930623 24.44° C 96% 1020.5 hPa 0 mm - 253 W/m² -
1787930051 24.44° C 96% 1020.2 hPa 0 mm - 211 W/m² -
1787929405 24.44° C 96% 1020.2 hPa 0 mm - 202 W/m² -
1787928824 23.89° C 96% 1020.2 hPa 0 mm - 165 W/m² -
1787928230 23.89° C 96% 1020 hPa 0 mm - 134 W/m² -
1787927658 23.89° C 96% 1020.2 hPa 0 mm - 105 W/m² -
1787927012 23.89° C 96% 1020.1 hPa 0 mm - 100 W/m² -
1787926445 23.89° C 96% 1020.1 hPa 0 mm - 102 W/m² -
1787925857 23.89° C 96% 1020.1 hPa 0 mm - 91 W/m² -
1787925220 23.89° C 96% 1020.2 hPa 0 mm - 90 W/m² -
1787924641 23.89° C 96% 1019.9 hPa 0 mm - 77 W/m² -
1787924009 23.89° C 96% 1019.8 hPa 0 mm - 70 W/m² -
1787919818 23.33° C 96% 1019.4 hPa 0 mm - 0 W/m² -
1787919253 23.33° C 96% 1019.2 hPa 0 mm - 0 W/m² -
1787918607 23.33° C 96% 1019.2 hPa 0 mm - 0 W/m² -
1787918043 23.33° C 96% 1019 hPa 0 mm - 0 W/m² -
1787917411 23.33° C 96% 1019.1 hPa 0 mm - 0 W/m² -
1787916838 23.33° C 96% 1019.1 hPa 0 mm - 0 W/m² -
1787916261 23.33° C 96% 1019.1 hPa 0 mm - 0 W/m² -
1787915604 23.33° C 96% 1019 hPa 0 mm - 0 W/m² -
1787914416 23.33° C 96% 1018.7 hPa 0 mm - 0 W/m² -

* Rain latest hour (hover to see other rain measurements)
** Current wind speed in m/s (hover to see current wind gust speed)